SCP
1 0 0 0 0 0 0 0 0 0 0 0 0 0 0 0 0 0 0 0 0 0 0 0 0 0 0 0 0 0 0 0 0 0 0 0 0 0 0 0 0 0 0 0
0 0 0 0 0 0 0 0 0 0 0 0 0 0 0 0 0 0 0 0 0 0 0 0 0 0 0 0 0 0 0 0 0 0 0 0 0 0 0 0 0 0 0 0
0 0 0 0 0 0 0 0 0 0 0 0 0 0 0 0 0 0 0 0 0 0 0 0 0 0 0 0 0 0 0 0 0 0 0 0 0 0 0 0 0 0 0 0
0 0 0 0 0 0 0 0 0 0 0 0 0 0 0 0 0 0 0 0 0 0 0 0 0 0 0 0 0 0 0 0 0 0 0 0 0 0 0 0 0 0 0 0
0 0 0 0 0 0 0 0 0 0 0 0 0 0 0 0 0 0 0 0 0 0 0 0 0 0 0 0 0 0 0 0 0 0 0 0 0 0 0 0 0 0 0 0
0 0 0 0 0 0 0 0 0 0 0 0 0 0 0 0 0 0 0 0 0 0 0 0 0 0 0 0 0 0 0 0 0 0 0 0 0 0 0 0 0 0 0 0
0 0 0 0 0 0 0 0 0 0 0 0 0 0 0 0 0 0 0 0 0 0 0 0 0 0 0 0 1 1 0 0 0 0 0 0 0 0 0 0 0 0 0 0
0 0 0 0 0 0 0 0 0 0 0 0 0 0 0 0 0 0 0 0 0 0 0 0 0 0 0 0 1 1 1 1 1 0 0 0 0 0 0 0 0 0 0 0
0 0 0 0 0 0 0 0 0 0 0 0 0 0 0 0 0 0 0 0 0 0 0 0 0 0 0 0 0 1 1 1 1 1 1 1 0 0 0 0 0 0 0 0
0 0 0 0 0 0 0 0 0 0 0 0 0 0 0 0 0 0 0 0 0 0 0 0 0 0 0 0 0 0 1 1 1 1 1 1 1 1 1 1 1 1 1 0
0 0 0 0 0 0 0 0 0 0 0 0 0 0 0 0 0 0 0 0 0 0 0 0 0 0 0 0 0 0 0 0 1 1 1 1 1 1 1 1 1 1 1 1
0 0 0 0 0 0 0 0 0 0 0 0 0 0 0 0 0 0 0 0 0 0 0 0 0 0 0 0 0 0 0 0 0 0 0 1 1 2 2 2 2 2 1 1
0 1 0 0 0 0 0 0 0 0 0 0 0 0 0 0 0 0 0 0 0 0 0 0 0 0 0 0 0 0 0 0 0 0 0 0 1 1 1 1 1 1 1 1
0 1 0 0 0 0 0 0 0 0 0 0 0 0 0 0 0 0 0 0 0 0 0 0 0 0 0 0 0 0 0 0 0 0 0 0 0 0 1 1 1 1 0 0
1 0 0 0 0 0 0 0 0 0 0 0 0 0 0 0 0 0 0 0 0 0 0 0 0 0 0 0 0 0 0 0 0 0 0 0 0 0 0 0 0 0 0 0
1 1 0 0 0 0 0 0 0 0 0 0 0 0 0 0 0 0 0 0 0 0 0 0 0 0 0 0 0 0 0 0 0 0 0 0 0 0 0 0 0 0 0 0
1 1 0 0 0 0 0 0 0 0 0 0 0 0 0 0 0 0 0 0 0 0 0 0 0 0 0 0 0 0 0 0 0 0 0 0 0 0 0 0 0 0 0 0
1 1 1 0 0 0 0 0 0 0 0 0 0 0 0 0 0 0 0 0 0 0 0 0 0 0 0 0 0 0 0 0 0 0 0 0 0 0 0 0 0 0 0 0
1 1 1 0 0 0 0 0 0 0 0 0 0 0 0 0 0 0 0 0 0 0 0 0 0 0 0 0 0 0 0 0 0 0 0 0 0 0 0 0 0 0 0 0
0 0 1 0 0 0 0 0 0 0 0 0 0 0 0 0 0 0 0 0 0 0 0 0 0 0 0 0 0 0 0 0 0 0 0 0 0 0 0 0 0 0 0 0
0 0 0 0 0 0 0 0 0 0 0 0 0 0 0 0 0 0 0 0 0 0 0 0 0 0 0 0 0 0 0 0 0 0 0 0 0 0 0 0 0 0 0 0
0 0 0 0 0 0 0 0 0 0 0 0 0 0 0 0 0 0 0 0 0 0 0 0 0 0 0 0 0 0 0 0 0 0 0 0 0 0 0 0 0 0 0 0
0 0 0 0 0 0 0 0 0 0 0 0 0 0 0 0 0 0 0 0 0 0 0 0 0 0 0 0 0 0 0 0 0 0 0 0 0 0 0 0 0 0 0 0
0 0 0 0 0 0 0 0 0 0 0 0 0 0 0 0 0 0 0 0 0 0 0 0 0 0 0 0 0 0 0 0 0 0 0 0 0 0 0 0 0 0 0 0
0 0 0 0 0 0 0 0 0 0 0 0 0 0 0 0 0 0 0 0 0 0 0 0 0 0 0 0 0 0 0 0 0 0 0 0 0 0 0 0 0 0 0 0
0 0 0 0 0 0 0 0 0 0 0 0 0 0 0 0 0 0 0 0 0 0 0 0 0 0 0 0 0 0 0 0 0 0 0 0 0 0 0 0 0 0 0 0
Wind_Speed
9 9 16 20 20 12 9 12 13 11 8 11 12 14 12 9 8 9 9 9 9 11 11 12 12 11 11 12 13 14 14 13 11 9 9 8 8 7 6 6 8 9 8 9
10 20 21 14 15 15 13 13 12 7 5 6 8 13 12 12 12 11 11 11 10 9 9 11 13 12 13 13 14 14 15 15 14 11 10 7 7 6 7 6 8 10 10 10
21 14 16 16 15 17 17 15 12 6 3 3 4 10 14 14 14 13 12 11 10 11 11 11 13 14 13 14 15 14 15 16 15 12 8 6 6 5 7 9 9 11 11 11
21 13 16 19 19 18 18 13 9 6 5 5 7 8 10 14 17 18 15 12 12 11 11 11 13 14 15 15 13 14 14 15 15 14 12 12 11 12 12 9 9 10 12 12
16 17 19 22 21 17 9 7 8 7 5 5 8 9 8 10 13 15 15 15 13 12 12 12 13 15 14 15 13 13 13 14 15 15 15 14 12 10 7 8 10 11 11 12
11 10 15 15 13 12 6 4 2 2 4 11 15 11 9 9 12 10 12 14 15 13 13 12 11 12 13 13 12 12 14 14 14 16 16 16 15 12 10 11 11 10 8 10
11 10 9 9 12 10 11 10 6 7 9 12 9 11 12 7 8 9 10 11 12 12 12 11 11 11 12 13 14 13 14 15 15 15 17 17 17 15 14 12 11 10 9 10
17 15 16 13 16 15 17 16 11 10 9 5 7 13 10 6 5 5 6 7 7 7 8 10 10 10 11 12 12 13 14 14 14 14 15 15 15 12 11 12 10 11 10 11
17 16 14 14 11 15 18 18 10 3 2 3 8 8 8 5 5 6 6 6 7 7 8 8 8 8 9 10 11 12 12 12 12 13 13 13 14 13 12 11 11 8 9 9
8 9 12 12 8 10 11 11 7 8 8 8 8 10 9 9 12 10 9 9 9 9 8 7 6 7 7 7 8 8 9 10 10 10 10 10 12 12 11 9 10 10 10 9
7 7 10 13 18 20 15 17 11 9 7 7 6 8 8 12 13 13 13 12 11 10 8 7 6 6 5 5 6 7 7 8 8 9 8 9 9 10 10 10 10 9 9 10
10 6 8 13 11 14 15 16 15 13 9 7 5 8 2 5 8 9 9 8 7 7 6 6 6 5 5 5 5 6 6 7 7 6 7 7 8 8 9 10 9 9 9 9
11 9 9 7 7 10 16 18 20 14 7 7 8 11 4 3 3 4 6 6 6 6 6 5 5 5 6 6 6 6 6 6 5 5 5 6 6 8 9 9 8 8 8 8
10 7 10 16 13 15 17 20 21 18 12 12 13 13 8 6 6 6 7 7 6 6 7 6 6 7 7 7 7 7 6 6 6 5 6 6 7 7 7 6 7 7 7 7
9 8 7 8 7 13 15 19 23 23 19 15 16 19 18 11 9 8 8 7 7 7 7 8 8 7 7 7 7 7 7 7 6 7 7 7 5 4 4 5 5 5 6 6
9 8 7 8 8 10 13 18 22 24 24 22 17 20 19 12 8 7 8 8 9 9 9 8 8 8 8 9 8 8 7 7 7 7 7 6 5 5 5 4 4 5 5 5
8 8 9 9 8 6 14 21 24 23 23 24 26 28 16 13 13 12 9 9 10 10 9 9 9 10 10 9 9 9 8 7 7 7 6 6 6 6 5 5 5 5 5 5
8 7 5 5 7 15 12 12 17 21 23 24 24 21 19 17 12 9 10 10 10 9 9 8 8 8 7 7 8 7 7 7 7 6 6 6 6 6 5 5 6 5 4 5
11 8 5 6 9 9 7 13 20 22 24 23 24 24 19 13 7 10 10 9 9 9 8 8 8 7 7 7 8 8 7 7 7 7 7 7 7 7 7 7 6 5 5 5
11 9 7 7 8 13 15 12 12 12 19 21 24 25 19 10 12 15 8 8 9 8 6 6 5 5 5 5 7 8 8 8 9 9 7 7 7 8 8 7 6 4 4 4
11 10 13 11 9 10 11 9 14 16 21 16 17 17 14 16 17 10 7 8 8 7 6 6 5 4 4 5 7 8 7 8 7 6 6 6 6 7 6 5 5 5 5 5
13 11 12 10 10 13 7 11 16 14 6 4 9 12 13 13 12 9 8 8 7 6 5 5 5 4 3 5 7 7 7 5 5 6 6 6 6 5 5 6 5 6 6 6
12 12 8 10 10 6 6 7 7 5 6 5 5 6 7 9 9 8 7 6 6 6 5 4 5 4 3 3 5 7 5 5 6 6 6 5 5 5 5 6 7 6 6 5
5 5 5 6 9 7 5 3 3 2 4 4 4 4 4 5 5 5 4 4 4 4 4 4 5 5 3 3 3 4 4 6 7 7 6 5 6 5 5 4 5 6 6 6
4 5 6 7 6 4 5 4 3 2 2 1 1 2 3 4 4 4 4 4 4 3 3 4 5 5 4 4 3 3 4 6 6 6 5 5 5 5 5 4 4 4 4 5
3 4 7 7 4 5 6 4 4 3 3 4 3 2 1 3 4 3 3 3 3 4 4 4 4 4 4 4 4 3 3 5 7 6 5 4 4 4 4 4 3 3 3 4
Wind_Direction
169 189 204 203 207 219 211 215 221 220 190 195 221 236 241 237 225 219 223 222 215 208 195 185 184 181 180 182 182 182 181 182 179 182 186 189 194 193 194 194 191 189 188 188
172 213 212 204 207 222 235 235 234 233 174 193 234 246 244 234 228 222 219 219 216 212 197 186 181 180 185 188 188 187 186 185 186 189 189 189 184 193 196 195 196 195 193 191
202 206 202 205 204 212 226 228 226 223 161 209 272 265 242 241 234 231 224 217 214 210 203 190 184 185 188 193 194 193 191 189 190 186 180 180 187 185 195 201 201 200 196 194
213 207 193 203 209 206 222 217 228 224 196 219 199 260 234 226 224 223 221 218 216 214 207 196 187 188 192 197 196 197 195 192 190 186 188 187 194 200 200 196 197 196 198 197
205 197 196 204 208 204 209 193 213 225 225 249 226 251 252 219 222 217 212 214 216 215 210 204 195 194 195 194 194 197 198 197 192 190 193 196 204 207 198 191 193 196 199 200
210 199 200 206 204 199 166 127 131 215 219 240 225 232 259 215 219 211 208 209 211 213 213 210 202 193 194 191 191 193 198 203 198 196 197 201 207 205 200 197 196 197 197 201
200 208 205 184 180 180 164 153 168 193 211 234 200 218 247 218 211 204 205 208 208 209 208 207 204 197 194 191 191 194 198 205 203 201 202 205 208 208 209 205 200 195 196 201
191 198 196 191 188 183 187 183 185 190 204 225 187 221 243 215 203 203 210 207 209 209 208 207 203 198 195 192 191 193 199 205 204 205 207 207 208 210 214 212 206 202 202 203
194 204 186 195 185 176 184 202 210 192 147 209 221 233 246 200 204 210 221 221 221 220 218 213 204 196 192 192 194 195 200 206 208 208 207 209 208 209 212 211 210 204 202 198
189 193 181 181 174 206 194 180 181 197 185 216 234 221 220 190 203 212 219 221 223 219 216 213 207 201 192 189 193 196 201 207 212 212 210 211 210 211 211 208 208 205 201 194
203 183 174 174 191 189 183 190 189 192 199 192 223 239 208 191 193 201 209 210 210 213 211 207 202 194 183 178 182 192 202 208 210 212 211 208 207 207 206 209 209 204 199 193
194 176 191 198 201 199 199 198 193 193 200 205 217 252 208 168 183 188 196 199 197 201 200 193 182 173 177 189 195 199 202 208 213 210 210 210 207 203 205 209 208 202 200 196
178 170 170 181 202 206 209 207 207 211 199 198 207 247 217 165 168 175 184 191 191 195 197 183 176 183 192 197 201 204 203 205 205 202 207 212 210 206 208 208 203 199 195 192
172 188 199 199 195 186 200 207 207 207 212 217 220 236 231 203 204 200 198 201 195 197 197 194 198 202 201 199 198 200 204 198 193 194 202 210 212 210 206 199 193 192 188 186
178 203 221 237 207 185 199 204 207 213 214 216 226 234 241 222 213 209 200 197 199 205 204 204 206 206 202 200 202 200 199 192 186 191 201 207 203 199 192 190 188 185 184 184
181 191 204 240 228 207 211 210 210 215 218 226 234 241 240 234 224 218 208 202 206 211 211 210 207 204 204 203 204 200 199 189 181 192 200 193 183 182 181 180 175 173 175 173
182 172 189 221 218 218 221 209 209 216 219 220 228 236 237 233 227 226 219 213 212 212 210 209 206 206 207 204 199 199 195 178 180 191 191 185 178 177 176 168 166 172 170 164
187 181 191 191 182 223 232 209 210 219 224 223 231 238 236 236 233 226 217 212 217 214 211 212 211 210 207 198 191 184 171 171 179 187 188 182 176 173 167 167 174 172 163 166
197 184 192 198 216 236 245 202 201 211 229 224 229 236 238 235 246 246 224 209 213 214 211 210 206 203 197 189 176 161 166 169 178 190 192 186 176 172 172 178 178 170 165 165
202 189 197 208 216 224 229 203 194 204 242 227 224 232 231 210 229 242 213 206 218 218 211 203 195 185 184 178 154 158 173 179 195 197 191 179 174 176 181 179 168 158 156 157
189 197 208 217 229 246 243 180 156 192 231 225 220 229 220 213 226 232 187 199 209 211 208 195 177 176 184 162 153 170 179 197 196 173 164 165 170 174 170 161 153 148 144 143
190 194 204 208 221 239 225 167 182 209 219 196 204 217 218 224 226 218 203 203 205 199 193 176 162 168 161 154 159 175 191 185 155 152 158 163 163 160 156 152 151 150 151 154
202 198 196 205 220 236 200 198 213 207 208 209 204 216 211 220 224 217 211 204 196 187 180 167 161 159 147 154 161 176 181 150 143 147 157 157 155 156 157 160 162 160 163 168
227 193 191 218 239 238 242 245 241 231 222 220 206 210 205 212 216 208 197 185 175 168 167 155 147 151 155 147 144 159 146 140 143 152 157 156 158 159 158 162 168 172 177 179
231 194 205 229 244 248 251 238 241 255 268 262 244 207 201 198 207 198 188 182 169 152 140 141 152 155 155 138 128 122 130 137 144 150 153 156 161 162 165 169 178 180 186 186
239 226 214 229 228 226 242 255 248 231 239 233 219 228 219 187 199 177 167 160 146 139 131 130 135 136 131 124 117 108 125 140 146 150 156 159 160 159 160 159 151 174 166 176